Regional Weather Roundup
Issued by NWS State College, PA

Home | Current Version | Previous Version | Text Only | Print | Product List | Glossary On
Versions: 1 2 3 4 5 6 7 8 9 10 11 12 13 14 15 16 17 18 19 20 21 22 23 24 25 26 27 28 29 30 31 32 33 34 35 36 37 38 39 40 41 42 43 44 45 46 47 48 49 50
000
ASUS41 KCTP 230010
RWRCTP

REGIONAL WEATHER ROUNDUP
NATIONAL WEATHER SERVICE STATE COLLEGE PA
800 PM EDT TUE AUG 22 2017

Note: "fair" indicates few or no clouds below 12,000 feet with no
significant weather and/or obstructions to visibility.

* = STATION THAT DOES NOT REPORT PRECIPITATION /E.G. RAIN...SNOW...ETC/
    THUNDER OR FOG.

PAZ002>004-007>009-013>016-020>023-029>032-230100-
WESTERN PENNSYLVANIA

CITY           SKY/WX    TMP DP  RH WIND       PRES   REMARKS
ERIE           LGT RAIN  69  66  90 SW15      29.79S
MEADVILLE      MOCLDY    73  67  81 SW7       29.83S
FRANKLIN*      CLEAR     70  64  83 SW6       29.85S
NEW CASTLE     FAIR      74  68  81 SW3       29.84F
BEAVER COUNTY  NOT AVBL
BUTLER*        CLOUDY    72  66  83 SW8       29.86F
PITTSBURGH INT CLOUDY    74  70  87 SW6       29.86F
PITTSBURGH     CLOUDY    73  68  84 VRB3      29.86F
INDIANA*       CLOUDY    70  70 100 SW6       29.90S
LATROBE        MOCLDY    72  72 100 SW9       29.89S
WASHINGTON CO* MOCLDY    72  70  94 CALM      29.87F
$$

PAZ004>006-010>012-017>019-024>028-033>037-041-042-045-046-049>053-230100-
CENTRAL PENNSYLVANIA

CITY           SKY/WX    TMP DP  RH WIND       PRES   REMARKS
BRADFORD       LGT RAIN  68  66  93 W5        29.84S
DUBOIS         MOCLDY    69  66  90 W10       29.85F
CLEARFIELD     MOCLDY    71  70  96 SW9       29.85F
JOHNSTOWN      CLOUDY    69  67  93 SW8       29.92F
ALTOONA        CLOUDY    69  69 100 S9        29.89F
STATE COLLEGE  MOCLDY    72  68  88 S8        29.84S
WILLIAMSPORT   LGT RAIN  75  74  96 W5        29.78R
SELINSGROVE    LGT RAIN  76  72  87 VRB7      29.79R FOG
FT INDIANTOWN  TSTM      75  73  94 NW22G31   29.79S
CAPITAL CITY   TSTM      87  71  58 SW10      29.78F
HARRISBURG     CLOUDY    87  72  60 VRB7      29.77F THUNDER
YORK           PTCLDY    85  72  65 S8        29.79F
$$

PAZ038>040-043-044-047-048-054-055-060>062-067>071-230100-
EASTERN PENNSYLVANIA

CITY           SKY/WX    TMP DP  RH WIND       PRES   REMARKS
SCRANTON       CLOUDY    74  71  91 NW13G23   29.79S THUNDER
MOUNT POCONO   PTCLDY    76  71  85 SW13      29.85F
ALLENTOWN      PTCLDY    85  72  65 S12       29.77F
QUAKERTOWN*    PTCLDY    82  73  74 SW8       29.81F
READING        CLEAR     84  74  71 S10       29.77F
LANCASTER      PTCLDY    85  73  67 S8        29.79F
COATESVILLE    CLEAR     82  73  74 VRB7G14   29.84F
POTTSTOWN      CLEAR     83  72  69 S8        29.82F
BLUE BELL      CLOUDY    82  72  69 S7        29.82F
DOYLESTOWN     CLOUDY    84  71  65 S8        29.80F
WILLOW GROVE   NOT AVBL
NORTH PHILA    PTCLDY    88  71  57 SW12G24   29.82F
PHILADELPHIA   CLOUDY    86  72  62 SW15      29.82F
$$




USA.gov is the U.S. government's official web portal to all federal, state and local government web resources and services.